Port Angeles, WA
on Friday, December 28, 2012

Friday
Previous Day Next Day
Daily Summary
 ActualAverageRecord
Temperature
Mean Temperature °F °F  
Max Temperature 45°F 43°F 60°F (1949)
Min Temperature 37°F 32°F 11°F (1968)
Degree Days
Heating Degree Days 24    
Moisture
Dew Point 38°F   
Average Humidity 89    
Maximum Humidity 97    
Minimum Humidity 80    
Precipitation
Precipitation 0.00 in in in ()
Wind
Wind Speed 3 mph   
Max Wind Speed 8 mph   
Max Gust Speed mph   
Visibility 10 miles   
Events Rain   
Averages and records for this station are not official NWS values.
Key: T is trace of precipitation, MM is missing value
Source: NWS Daily Summary
Seasonal Weather Averages
Time(PST)TemperatureDew PointHumidity Pressure Visibility Wind DirectionWind SpeedGust SpeedPrecipitationEvents Conditions
12:53 AM 37.9°F 35.1°F 89% 30.13 in 10.0 miles Calm Calm - N/A   Overcast
1:53 AM 37.9°F 37.0°F 97% 30.12 in 10.0 miles Calm Calm - N/A   Overcast
2:53 AM 37.4°F 35.6°F 93% 30.11 in 10.0 miles Calm Calm - N/A   Overcast
3:53 AM 37.9°F 36.0°F 93% 30.11 in 10.0 miles SSW 3.5 mph - N/A   Overcast
4:53 AM 37.0°F 36.0°F 96% 30.09 in 10.0 miles Calm Calm - N/A   Overcast
5:53 AM 37.9°F 36.0°F 93% 30.09 in 10.0 miles WSW 3.5 mph - N/A   Overcast
6:53 AM 37.0°F 35.1°F 93% 30.09 in 10.0 miles Calm Calm - N/A   Mostly Cloudy
7:53 AM 39.9°F 36.0°F 86% 30.08 in 10.0 miles WSW 6.9 mph - N/A   Overcast
8:53 AM 41.0°F 36.0°F 82% 30.09 in 10.0 miles WSW 6.9 mph - N/A   Overcast
9:53 AM 42.1°F 37.9°F 85% 30.10 in 10.0 miles West 6.9 mph - N/A   Overcast
10:53 AM 44.1°F 39.0°F 82% 30.11 in 10.0 miles WSW 6.9 mph - N/A   Overcast
11:51 AM 44.6°F 39.2°F 81% 30.10 in 10.0 miles WNW 6.9 mph - N/A   Overcast
11:53 AM 45.0°F 39.9°F 82% 30.11 in 10.0 miles WNW 8.1 mph - N/A   Overcast
12:05 PM 45.0°F 39.0°F 80% 30.10 in 10.0 miles WNW 5.8 mph - N/A   Overcast
12:53 PM 44.1°F 39.0°F 82% 30.10 in 10.0 miles Calm Calm - N/A   Overcast
1:28 PM 44.6°F 39.2°F 81% 30.09 in 10.0 miles NW 5.8 mph - N/A   Overcast
1:53 PM 44.1°F 39.0°F 82% 30.10 in 10.0 miles West 4.6 mph - N/A   Overcast
2:53 PM 44.1°F 39.0°F 82% 30.11 in 10.0 miles West 3.5 mph - N/A   Overcast
3:53 PM 43.0°F 39.9°F 89% 30.12 in 10.0 miles West 3.5 mph - 0.00 in Rain Light Rain
4:53 PM 42.8°F 39.2°F 87% 30.11 in 10.0 miles WSW 3.5 mph - N/A Rain Light Rain
5:05 PM 42.1°F 39.9°F 92% 30.11 in 10.0 miles SW 3.5 mph - 0.00 in Rain Light Rain
5:53 PM 42.1°F 39.9°F 92% 30.12 in 10.0 miles Calm Calm - 0.00 in Rain Light Rain
6:53 PM 41.0°F 39.9°F 96% 30.13 in 8.0 miles Calm Calm - 0.00 in Rain Light Rain
7:53 PM 41.0°F 39.0°F 93% 30.13 in 10.0 miles SSW 3.5 mph - 0.00 in Rain Light Rain
8:17 PM 41.0°F 39.0°F 93% 30.13 in 7.0 miles Calm Calm - 0.00 in Rain Light Rain
8:53 PM 41.0°F 39.0°F 93% 30.13 in 9.0 miles Calm Calm - 0.00 in Rain Light Rain
9:04 PM 41.0°F 39.0°F 93% 30.13 in 10.0 miles WSW 3.5 mph - 0.00 in Rain Light Rain
9:17 PM 41.0°F 39.0°F 93% 30.13 in 10.0 miles SW 4.6 mph - 0.00 in Rain Light Rain
9:53 PM 41.0°F 39.0°F 93% 30.14 in 10.0 miles SW 5.8 mph - 0.00 in Rain Light Rain
10:53 PM 42.1°F 39.9°F 92% 30.15 in 10.0 miles WSW 5.8 mph - 0.00 in Rain Light Rain
11:53 PM 42.1°F 39.0°F 89% 30.15 in 10.0 miles WSW 4.6 mph - 0.00 in   Overcast
Moon Phase
Dec. 28 Jan. 04 Jan. 11 Jan. 18 Jan. 26
Sunrise:08:04 AM (PST) Moon Rise:05:14 PM (PST)12/28
Sunset:04:27 PM (PST) Moon Set:07:57 AM (PST)12/28

Copyright © 2014 The Weather Underground, Inc.